• In Moldova, Republic
  • List of Countries
  • For 7 days
  • Water Temperature
  • Satellite Maps
  • Weather Map
  • Weather Widgets
  • user-avatar
    Login

    Hourly Weather Annaba

    Today, 21 January, Monday

    Time Temperature Precipitation Wind Pressure Humidity
    00:00 +10°C° 0.7 mm 2 mps 754 mmHg 84%
    01:00 +10°C° 0 mm 3 mps 754 mmHg 86%
    02:00 +10°C° 0.6 mm 2 mps 754 mmHg 86%
    03:00 +10°C° 0.6 mm 2 mps 754 mmHg 86%
    04:00 +10°C° 0.6 mm 2 mps 753 mmHg 85%
    05:00 +10°C° 0 mm 2 mps 753 mmHg 85%
    06:00 +9°C° 0 mm 3 mps 753 mmHg 84%
    07:00 +9°C° 0 mm 3 mps 753 mmHg 84%
    08:00 +10°C° 0 mm 3 mps 753 mmHg 80%
    09:00 +12°C° 0 mm 3 mps 754 mmHg 76%
    10:00 +13°C° 0 mm 3 mps 754 mmHg 73%
    11:00 +14°C° 0.1 mm 5 mps 754 mmHg 73%
    12:00 +14°C° 0.1 mm 6 mps 754 mmHg 73%
    13:00 +14°C° 0.1 mm 7 mps 754 mmHg 72%
    14:00 +13°C° 0.4 mm 8 mps 754 mmHg 75%
    15:00 +12°C° 0.4 mm 8 mps 755 mmHg 77%
    16:00 +11°C° 0.4 mm 8 mps 755 mmHg 80%
    17:00 +10°C° 0.4 mm 8 mps 756 mmHg 81%
    18:00 +10°C° 0.4 mm 7 mps 756 mmHg 83%
    19:00 +9°C° 0.4 mm 6 mps 757 mmHg 84%
    20:00 +9°C° 0.5 mm 6 mps 757 mmHg 85%
    21:00 +8°C° 0.5 mm 5 mps 758 mmHg 86%
    22:00 +8°C° 0.5 mm 5 mps 758 mmHg 88%
    23:00 +8°C° 0.6 mm 5 mps 758 mmHg 88%

    Tomorrow, 22 January, Tuesday

    Time Temperature Precipitation Wind Pressure Humidity
    00:00 +7°C° 0.6 mm 5 mps 759 mmHg 88%
    01:00 +7°C° 0.6 mm 5 mps 759 mmHg 88%
    02:00 +7°C° 0.3 mm 5 mps 759 mmHg 88%
    03:00 +7°C° 0.3 mm 5 mps 759 mmHg 88%
    04:00 +6°C° 0.3 mm 5 mps 759 mmHg 89%
    05:00 +6°C° 0.2 mm 5 mps 759 mmHg 88%
    06:00 +6°C° 0.2 mm 5 mps 759 mmHg 88%
    07:00 +6°C° 0.2 mm 5 mps 759 mmHg 87%
    08:00 +7°C° 0.1 mm 5 mps 759 mmHg 83%
    09:00 +8°C° 0.1 mm 5 mps 759 mmHg 80%
    10:00 +9°C° 0.1 mm 5 mps 759 mmHg 76%
    11:00 +11°C° 0.3 mm 4 mps 759 mmHg 73%
    12:00 +11°C° 0.3 mm 4 mps 758 mmHg 69%
    13:00 +12°C° 0.3 mm 4 mps 758 mmHg 66%
    14:00 +12°C° 0.3 mm 4 mps 757 mmHg 66%
    15:00 +12°C° 0.3 mm 3 mps 757 mmHg 67%
    16:00 +11°C° 0.3 mm 3 mps 756 mmHg 68%
    17:00 +10°C° 0.4 mm 3 mps 756 mmHg 73%
    18:00 +9°C° 0.4 mm 3 mps 756 mmHg 78%
    19:00 +8°C° 0.4 mm 3 mps 756 mmHg 83%
    20:00 +8°C° 0.2 mm 3 mps 756 mmHg 83%
    21:00 +6°C° 0.2 mm 4 mps 755 mmHg 83%
    22:00 +6°C° 0.2 mm 4 mps 755 mmHg 83%
    23:00 +6°C° 0.1 mm 4 mps 755 mmHg 81%

    Day after tomorrow, 23 January, Wednesday

    Time Temperature Precipitation Wind Pressure Humidity
    00:00 +6°C° 0.1 mm 4 mps 754 mmHg 80%
    01:00 +5°C° 0.1 mm 4 mps 754 mmHg 78%
    02:00 +5°C° 0 mm 4 mps 753 mmHg 77%
    03:00 +5°C° 0 mm 4 mps 752 mmHg 77%
    04:00 +5°C° 0 mm 4 mps 752 mmHg 76%
    05:00 +5°C° 0 mm 4 mps 751 mmHg 75%
    06:00 +5°C° 0 mm 3 mps 751 mmHg 74%
    07:00 +5°C° 0 mm 3 mps 750 mmHg 73%
    08:00 +6°C° 0.3 mm 4 mps 750 mmHg 72%
    09:00 +6°C° 0.3 mm 4 mps 750 mmHg 72%
    10:00 +7°C° 0.3 mm 4 mps 750 mmHg 71%
    11:00 +8°C° 0.2 mm 6 mps 749 mmHg 70%
    12:00 +10°C° 0.2 mm 7 mps 749 mmHg 69%
    13:00 +11°C° 0.2 mm 9 mps 748 mmHg 68%
    14:00 +10°C° 0.4 mm 8 mps 748 mmHg 70%
    15:00 +10°C° 0.4 mm 8 mps 748 mmHg 72%
    16:00 +10°C° 0.4 mm 7 mps 747 mmHg 74%
    17:00 +9°C° 1 mm 6 mps 746 mmHg 77%
    18:00 +8°C° 1 mm 5 mps 745 mmHg 81%
    19:00 +7°C° 1 mm 5 mps 744 mmHg 84%
    20:00 +7°C° 2.2 mm 6 mps 744 mmHg 80%
    21:00 +7°C° 2.2 mm 8 mps 744 mmHg 77%
    22:00 +7°C° 2.2 mm 9 mps 744 mmHg 73%
    23:00 +6°C° 0.9 mm 9 mps 744 mmHg 75%

    24 January, Thursday

    Time Temperature Precipitation Wind Pressure Humidity
    00:00 +6°C° 0.9 mm 9 mps 744 mmHg 78%
    01:00 +5°C° 0.9 mm 9 mps 744 mmHg 81%
    02:00 +3°C° 1 mm 9 mps 743 mmHg 79%
    03:00 +3°C° 1 mm 10 mps 743 mmHg 77%
    04:00 +3°C° 1 mm 11 mps 743 mmHg 75%
    05:00 +3°C° 0.8 mm 12 mps 742 mmHg 74%
    06:00 +3°C° 0.8 mm 12 mps 741 mmHg 73%
    07:00 +3°C° 0.8 mm 13 mps 740 mmHg 73%
    08:00 +3°C° 4 mm 14 mps 739 mmHg 78%
    09:00 +2°C° 4 mm 15 mps 738 mmHg 84%
    10:00 +4°C° 4 mm 16 mps 737 mmHg 89%
    11:00 +5°C° 3.4 mm 15 mps 737 mmHg 87%
    12:00 +5°C° 3.4 mm 15 mps 738 mmHg 84%
    13:00 +6°C° 3.4 mm 14 mps 738 mmHg 81%
    14:00 +7°C° 0.9 mm 12 mps 740 mmHg 79%
    15:00 +8°C° 0.9 mm 9 mps 741 mmHg 76%
    16:00 +9°C° 0.9 mm 6 mps 743 mmHg 74%
    17:00 +8°C° 0.5 mm 6 mps 744 mmHg 76%
    18:00 +7°C° 0.5 mm 5 mps 745 mmHg 79%
    19:00 +6°C° 0.5 mm 5 mps 746 mmHg 81%
    20:00 +6°C° 0.2 mm 5 mps 747 mmHg 81%
    21:00 +6°C° 0.2 mm 5 mps 747 mmHg 81%
    22:00 +6°C° 0.2 mm 5 mps 748 mmHg 82%
    23:00 +7°C° 0.5 mm 6 mps 749 mmHg 83%

    25 January, Friday

    Time Temperature Precipitation Wind Pressure Humidity
    00:00 +8°C° 0.5 mm 7 mps 749 mmHg 84%
    01:00 +7°C° 0.5 mm 8 mps 750 mmHg 85%
    02:00 +7°C° 1 mm 9 mps 750 mmHg 85%
    03:00 +7°C° 1 mm 9 mps 751 mmHg 84%
    04:00 +7°C° 1 mm 10 mps 751 mmHg 84%
    05:00 +7°C° 0.7 mm 10 mps 752 mmHg 83%
    06:00 +7°C° 0.7 mm 9 mps 753 mmHg 82%
    07:00 +7°C° 0.7 mm 9 mps 753 mmHg 81%
    08:00 +7°C° 0.4 mm 9 mps 754 mmHg 80%
    09:00 +8°C° 0.4 mm 9 mps 755 mmHg 80%
    10:00 +8°C° 0.4 mm 9 mps 756 mmHg 79%
    11:00 +8°C° 0.9 mm 9 mps 756 mmHg 78%
    12:00 +8°C° 0.9 mm 9 mps 756 mmHg 78%
    13:00 +8°C° 0.9 mm 10 mps 757 mmHg 77%
    14:00 +8°C° 0.7 mm 10 mps 757 mmHg 78%
    15:00 +8°C° 0.7 mm 9 mps 757 mmHg 78%
    16:00 +8°C° 0.7 mm 9 mps 757 mmHg 79%
    17:00 +8°C° 0.4 mm 9 mps 757 mmHg 80%
    18:00 +7°C° 0.4 mm 9 mps 758 mmHg 81%
    19:00 +7°C° 0.4 mm 8 mps 758 mmHg 82%
    20:00 +7°C° 0.2 mm 8 mps 759 mmHg 83%
    21:00 +7°C° 0.2 mm 8 mps 759 mmHg 83%
    22:00 +6°C° 0.2 mm 8 mps 760 mmHg 83%
    23:00 +7°C° 0.2 mm 8 mps 760 mmHg 82%

    26 January, Saturday

    Time Temperature Precipitation Wind Pressure Humidity
    00:00 +7°C° 0.2 mm 8 mps 760 mmHg 80%
    01:00 +7°C° 0.2 mm 8 mps 760 mmHg 78%
    02:00 +7°C° 0.2 mm 8 mps 760 mmHg 77%
    03:00 +7°C° 0.2 mm 8 mps 760 mmHg 76%
    04:00 +7°C° 0.2 mm 8 mps 760 mmHg 76%
    05:00 +7°C° 0.2 mm 8 mps 760 mmHg 76%
    06:00 +7°C° 0.2 mm 8 mps 761 mmHg 77%
    07:00 +8°C° 0.2 mm 7 mps 761 mmHg 78%
    08:00 +8°C° 0.2 mm 7 mps 761 mmHg 79%
    09:00 +8°C° 0.2 mm 7 mps 761 mmHg 80%
    10:00 +9°C° 0.2 mm 6 mps 761 mmHg 81%
    11:00 +9°C° 0.5 mm 6 mps 761 mmHg 81%
    12:00 +9°C° 0.5 mm 7 mps 761 mmHg 80%
    13:00 +9°C° 0.5 mm 7 mps 761 mmHg 79%
    14:00 +10°C° 0 mm 7 mps 761 mmHg 76%
    15:00 +11°C° 0 mm 8 mps 761 mmHg 73%
    16:00 +11°C° 0 mm 8 mps 761 mmHg 70%
    17:00 +11°C° 0.3 mm 7 mps 761 mmHg 75%
    18:00 +10°C° 0.3 mm 7 mps 761 mmHg 80%
    19:00 +9°C° 0.3 mm 6 mps 761 mmHg 84%
    20:00 +9°C° 0.3 mm 6 mps 761 mmHg 84%
    21:00 +9°C° 0.3 mm 6 mps 761 mmHg 84%
    22:00 +8°C° 0.3 mm 5 mps 761 mmHg 83%
    23:00 +8°C° 0 mm 5 mps 761 mmHg 83%
    Show more